Regional Weather Roundup
Issued by NWS

Home | Current Version | Previous Version | Graphics & Text | Print | Product List | Glossary On
Versions: 1 2 3 4 5 6 7 8 9 10 11 12 13 14 15 16 17 18 19 20 21 22 23 24 25 26 27 28 29 30 31 32 33 34 35 36 37 38 39 40 41 42 43 44 45 46 47 48 49 50
673
ASUS43 KMPX 271301
RWRMN
WEATHER ROUNDUP FOR MINNESOTA
NATIONAL WEATHER SERVICE TWIN CITIES/CHANHASSEN MN
800 AM CDT WED JUL 27 2016


NOTE: "FAIR" INDICATES FEW OR NO CLOUDS BELOW 12,000 FEET WITH NO
SIGNIFICANT WEATHER AND/OR OBSTRUCTIONS TO VISIBILITY. N/A MEANS
CURRENT SKY AND/OR WEATHER CONDITIONS ARE NOT AVAILABLE.

MNZ060>063-068>070-271400-
   Twin Cities Metro

CITY           SKY/WX    TMP DP  RH WIND       PRES   REMARKS
TWIN CITIES    CLOUDY    76  67  73 S6        29.98R
ST PAUL        CLOUDY    74  70  87 S3        29.98R
CRYSTAL        CLOUDY    74  69  85 S3        29.96R
BLAINE         CLOUDY    75  73  94 CALM      29.97R
LAKEVILLE      CLOUDY    70  70 100 S3        29.99R
EDEN PRAIRIE   CLOUDY    75  68  78 SE3       29.96R
LAKEVILLE      CLOUDY    70  70 100 S3        29.99R
SOUTH ST PAUL  CLOUDY    74  68  80 CALM      29.97R
LAKE ELMO      CLOUDY    72  70  94 SE3       29.99S
$$
MNZ001>005-007-008-013>017-022>024-027-028-271400-
   Northwest Minnesota

CITY           SKY/WX    TMP DP  RH WIND       PRES   REMARKS
HALLOCK        CLOUDY    61  57  88 N7        30.06R
ROSEAU         PTSUNNY   59  54  82 N3        30.05R
WARROAD        CLOUDY    66  61  82 NE9       30.05R
THIEF RVR FALL PTSUNNY   64  55  72 N9        30.05S
CROOKSTON      CLOUDY    64  57  77 N6        30.05S
FOSSTON        CLOUDY    63  57  82 N3        30.05R
DETROIT LAKES  CLOUDY    64  61  88 NE6       30.00S
MOORHEAD       CLOUDY    64  61  88 N13       30.02R
PARK RAPIDS    RAIN      64  62  93 N10       30.00F FOG
MAHNOMEN       CLOUDY    63  60  90 N6        30.02S
$$
MNZ006-009>011-018-025>026-271400-
   North Central Minnesota

CITY           SKY/WX    TMP DP  RH WIND       PRES   REMARKS
BAUDETTE       PTSUNNY   64  56  75 NE8       30.04R
FLAG ISLAND    PTSUNNY   64  55  72 NE10      30.05R
INTL FALLS     CLOUDY    66  57  72 NE6       30.04R
WASKISH        CLOUDY    63  59  88 NE5       30.02S
BIG FORK       CLOUDY    64  57  77 NE5       30.02R
LONGVILLE      CLOUDY    64  64 100 W8        30.02R
GRAND RAPIDS   RAIN      65  61  87 N3        30.01R
CRANE LAKE     CLOUDY    61  59  94 N1        30.06R
ORR            RAIN      61  55  82 CALM      30.01F
COOK           LGT RAIN  63  59  88 S3        30.05R
WALKER         TSTM      62  61  97 NE3       30.03R
$$
MNZ012-019>021-037-271400-
   Northeast Minnesota

CITY           SKY/WX    TMP DP  RH WIND       PRES   REMARKS
DULUTH         CLOUDY    66  58  75 E12       30.00S
ELY            LGT RAIN  64  57  77 CALM      30.04R
HIBBING        CLOUDY    65  57  75 E6        30.00S
EVELETH        CLOUDY    65  57  73 NE3       30.02S
DULUTH HARBOR  CLOUDY    68  64  88 NE8       29.98R
TWO HARBORS    CLOUDY    68  61  77 E8        29.99S
SILVER BAY     CLOUDY    66  55  68 NE6       30.01R
GRAND MARAIS     N/A     69  52  54 NE7       30.01R
G MARAIS ARPRT CLOUDY    63  52  67 NE5       30.06R
$$
MNZ029>031-032-039>041-046>048-054>057-064-271400-
   West Central Minnesota

CITY           SKY/WX    TMP DP  RH WIND       PRES   REMARKS
FERGUS FALLS   CLOUDY    66  66 100 CALM      29.98S
WHEATON        CLOUDY    66  66 100 SW3       30.00R
MORRIS         CLOUDY    66  64  94 N5        29.95F
ALEXANDRIA     CLOUDY    68  66  93 NE6       29.98F
ELBOW LAKE     FAIR      66  65  98 CALM      29.98F
WADENA         CLOUDY    63  61  94 N7        29.97F
GLENWOOD         N/A    N/A N/A N/A MISG        N/A
APPLETON       CLOUDY    66  63  88 NW7       29.96R
BENSON         LGT RAIN  64  61  88 N9        29.95R
ORTONVILLE     CLOUDY    66  64  94 NW10      29.99R
MADISON        DRIZZLE   66  64  94 W9        29.98R
WILLMAR        LGT RAIN  70  66  88 SE5       29.97S
$$
MNZ033>034-036-042>043-049>051-058-059-271400-
   Central Minnesota

CITY           SKY/WX    TMP DP  RH WIND       PRES   REMARKS
ST CLOUD       LGT RAIN  68  68 100 NE3       29.96S
SAUK CENTRE    PTSUNNY   67  66  96 NW5       29.97R
PAYNESVILLE    LGT RAIN  67  67 100 SE5       29.96S
AITKIN         MIX PCPN  66  61  82 CALM      29.98R
PINE RIVER     RAIN      64  64 100 N8        30.03R
BRAINERD       LGT RAIN  67  66  97 N7        29.99R
STAPLES        CLOUDY    64  63  94 NE3       29.97F
LONG PRAIRIE   DRIZZLE   68  66  94 NW3       29.97F
LITTLE FALLS   LGT RAIN  66  64  94 CALM      29.96F
LITCHFIELD     MOSUNNY   73  72  94 CALM      29.97R
BUFFALO        PTSUNNY   73  69  88 E3        29.97S
MAPLE LAKE     PTSUNNY   73  72  95 CALM      29.97S
HUTCHINSON     CLOUDY    73  71  92 CALM      29.97S
$$
MNZ037-044-045-052-053-271400-
   East Central Minnesota

CITY           SKY/WX    TMP DP  RH WIND       PRES   REMARKS
PRINCETON      PTSUNNY   70  66  88 CALM      29.97F
MORA           CLOUDY    64  64 100 S5        30.00R
CAMBRIDGE      PTSUNNY   70  63  78 CALM      29.96S
RUSH CITY      CLOUDY    67  65  93 CALM      29.98R
MOOSE LAKE     LGT RAIN  64  63  94 CALM      29.96S
HINCKLEY       CLOUDY    64  64 100 CALM      29.98R
CLOQUET        CLOUDY    68  61  77 E6        29.99S
MCGREGOR       CLOUDY    63  63 100 NE3       29.99R
$$
MNZ071>073-080-081-089-090-097-098-271400-
   Southwest Minnesota

CITY           SKY/WX    TMP DP  RH WIND       PRES   REMARKS
MONTEVIDEO     CLOUDY    66  66 100 S6        29.93F
GRANITE FALLS  PTSUNNY   70  67  89 CALM      29.97F FOG
CANBY          CLOUDY    68  64  89 SW6       29.97F
MARSHALL       CLOUDY    69  68  96 NW3       29.96R
REDWOOD FALLS  CLOUDY    72  66  81 SW5       29.95R
OLIVIA         CLOUDY    73  68  83 CALM      29.97R
PIPESTONE      CLOUDY    70  64  83 NW3       30.00R
WINDOM         CLOUDY    72  64  78 S10       29.99R
WORTHINGTON    PTSUNNY   70  66  87 CALM      29.99S
JACKSON        CLOUDY    72  64  78 S6        30.00S
TRACY          CLOUDY    72  68  89 SW6       29.98R
SLAYTON        PTSUNNY   70  66  87 W3        30.01R
$$
MNZ065>067-074>077-082>085-091>093-271400-
   South Central Minnesota

CITY           SKY/WX    TMP DP  RH WIND       PRES   REMARKS
MANKATO        CLOUDY    70  63  78 SE8       29.98S
NEW ULM        CLOUDY    72  68  88 S6        29.96S
ST JAMES       MOSUNNY   64  63  94 S5        29.98S
FAIRMONT       CLOUDY    70  64  83 SE7       29.99R
GLENCOE        CLOUDY    73  70  93 SE3       29.96S
FARIBAULT      CLOUDY    72  66  83 SE3       30.00R
OWATONNA       CLOUDY    72  64  78 S5        30.01R
WASECA         CLOUDY    68  64  88 S3        30.02R
ALBERT LEA     PTSUNNY   72  66  83 CALM      30.02R
$$
MNZ078>079-086>088-094>096-271400-
   Southeast Minnesota

CITY           SKY/WX    TMP DP  RH WIND       PRES   REMARKS
ROCHESTER      SUNNY     69  67  93 S5        30.03R
RED WING       CLOUDY    75  68  78 CALM      29.97S
STANTON        CLOUDY    72  66  83 S3        29.98S
DODGE CENTER   MOSUNNY   72  68  88 S3        30.02S
WINONA         MOSUNNY   73  70  88 CALM      30.00S
AUSTIN         MOSUNNY   70  64  83 S3        30.03R
PRESTON        MOSUNNY   69  65  85 S3        30.04S
$$
ABBREVIATIONS USED IN REMARKS
   TC - TEMPERATURES IN CELSIUS
  WCI - WIND CHILL INDEX
   HX - HEAT INDEX
  VSB - VISIBILITY
$$




USA.gov is the U.S. government's official web portal to all federal, state and local government web resources and services.